格洛纳斯M-713 COSMOS 2417 [GLONASS]

导读 | 豆包AI

COSMOS 2417(编号格洛纳斯M-713)是独联体(CIS)于2005年12月25日发射的GLONASS全球导航卫星,归属俄罗斯列舍特涅夫卫星信息系统运营。卫星采用三轴稳定模式,运行于近圆中地球轨道,轨道倾角约65.77°,平均轨道高度约1.91万千米,周期约11小时16分,旨在补网GLONASS星座,为全球提供全天候定位、测速与授时服务,在高纬度地区具备更优覆盖性能。

基本信息
目录编号:
28917
目录名称:
COSMOS 2417 (GLONASS)
国际标识:
2005-050C
轨道中心:
EARTH
卫星名称:
格洛纳斯M-713
卫星全名:
格洛纳斯M-713 COSMOS 2417 [GLONASS]
卫星状态:
在轨 (已飞行7384 天)
发射日期:
2005-12-25 UTC
国别 :
俄罗斯(独联体) (CIS)
星等 :
--
轨道信息
数据来源 国际轨道数据 AOE轨道数据
星历时间 2026-03-10T03:48:39+0800
4天前
查看轨道信息
2026-03-11T14:00:00+0800
2天前
查看轨道信息
半长轴 25507.841km 25507.801km
偏心率 0.0016108 0.0016037
轨道倾角 65.627° 65.626°
近地点辐角 95.889° 95.835°
升交点赤经 319.484° 319.436°
平近点角 82.349° 95.278°
近地点 19088.615km 19088.757km
远地点 19170.793km 19170.571km
周期 675.725分钟 675.724分钟
每日圈数 2.131043 2.131048
详细信息
平衡模式:
三轴稳定
覆盖范围:
全球
运营商:
列舍特涅夫卫星信息系统
运营商所在国:
俄罗斯
制造商(研发单位):
列舍特涅夫卫星信息系统
制造商所在国:
俄罗斯
使用方式:
暂无
卫星简介
格洛纳斯(GLONASS )是苏联/俄罗斯研制卫星导航系统。标准配置为24颗卫星,其中18颗卫星就能保证该系统为俄罗斯境内用户提供全部服务。该卫星已退役。
2D轨道图
3D轨道图
轨道高度分析图
轨道倾角分析图
轨道综合分析图
查看轨道综合分析图